Location: Newark
(43.6583°N, 1.6617°E)
Time: 12:45:30
(UTC+00:00)

Transit 2A Rocket - All Passes

Search period start: 19 August 2019 00:00
Search period end: 29 August 2019 00:00
Orbit: 590 x 913 km, 66.7° (Epoch: 18 August)

Date Brightness Start Highest point End Pass type
(mag) Time Alt. Az. Time Alt. Az. Time Alt. Az.
19 Aug - 03:46:13 10° NNW 03:50:16 28° NE 03:54:04 10° ESE visible
19 Aug - 05:28:43 10° NW 05:32:52 35° WSW 05:36:47 10° S daylight
19 Aug - 18:22:24 10° SSE 18:26:17 19° ESE 18:30:01 10° ENE daylight
19 Aug - 20:02:37 10° SW 20:08:27 73° WNW 20:13:48 10° NNE visible
19 Aug - 21:48:32 10° WNW 21:51:52 16° NW 21:55:04 10° N visible
20 Aug - 03:04:09 10° N 03:07:25 18° NE 03:10:30 10° E visible
20 Aug - 04:45:56 10° NW 04:50:30 67° WSW 04:54:47 10° SSE daylight
20 Aug - 17:43:23 10° ESE 17:44:06 10° ESE 17:44:50 10° E daylight
20 Aug - 19:20:07 10° SSW 19:25:55 71° ESE 19:31:17 10° NE visible
20 Aug - 21:04:32 10° W 21:08:57 23° NW 21:13:08 10° N visible
21 Aug - 02:22:30 10° N 02:24:26 12° NE 02:26:18 10° ENE visible
21 Aug - 04:03:23 10° NNW 04:08:00 68° ENE 04:12:19 10° SE visible
21 Aug - 05:47:55 10° WNW 05:49:50 13° WSW 05:51:43 10° SW daylight
21 Aug - 18:38:01 10° S 18:43:29 43° ESE 18:48:34 10° NE daylight
21 Aug - 20:21:00 10° WSW 20:26:10 34° NW 20:30:59 10° NNE visible
22 Aug - 03:21:01 10° NNW 03:25:22 38° NE 03:29:27 10° ESE visible
22 Aug - 05:04:04 10° WNW 05:07:40 23° WSW 05:11:06 10° SSW daylight
22 Aug - 17:56:25 10° SSE 18:01:07 26° ESE 18:05:34 10° NE daylight
22 Aug - 19:37:51 10° SW 19:43:29 53° NW 19:48:41 10° NNE visible
22 Aug - 21:24:57 10° WNW 21:27:11 12° NW 21:29:21 10° N visible
23 Aug - 02:38:49 10° N 02:42:37 24° NE 02:46:11 10° E visible
23 Aug - 04:21:04 10° NW 04:25:22 43° WSW 04:29:27 10° S visible
23 Aug - 17:15:41 10° SE 17:18:52 15° ESE 17:21:58 10° ENE daylight
23 Aug - 18:55:06 10° SSW 19:00:54 85° WNW 19:06:16 10° NNE daylight
23 Aug - 20:40:29 10° W 20:44:11 18° NW 20:47:44 10° N visible
24 Aug - 01:56:52 10° N 01:59:42 16° NE 02:02:25 10° ENE visible
24 Aug - 03:38:22 10° NNW 03:42:57 82° WSW 03:47:16 10° SSE visible
24 Aug - 18:12:43 10° SSW 18:18:25 60° ESE 18:23:41 10° NE daylight
24 Aug - 19:56:39 10° WSW 20:01:20 26° NW 20:05:42 10° N visible
25 Aug - 01:15:42 10° NNE 01:16:41 11° NNE 01:17:38 10° NE visible
25 Aug - 02:55:54 10° NNW 03:00:25 55° NE 03:04:40 10° SE visible
25 Aug - 04:39:45 10° WNW 04:42:24 16° WSW 04:44:59 10° SW visible
25 Aug - 17:30:47 10° S 17:36:00 36° ESE 17:40:53 10° NE daylight
25 Aug - 19:13:15 10° WSW 19:18:34 39° NW 19:23:30 10° NNE visible
26 Aug - 02:13:35 10° NNW 02:17:44 32° NE 02:21:39 10° ESE visible
26 Aug - 03:56:19 10° NW 04:00:11 29° WSW 04:03:53 10° S visible
26 Aug - 16:49:25 10° SSE 16:53:41 22° ESE 16:57:44 10° ENE daylight
26 Aug - 18:30:15 10° SW 18:35:56 62° NW 18:41:10 10° NNE daylight
26 Aug - 20:16:43 10° WNW 20:19:29 14° NW 20:22:08 10° N visible
27 Aug - 01:31:28 10° N 01:34:56 20° NE 01:38:14 10° E visible
27 Aug - 03:13:26 10° NW 03:17:51 54° WSW 03:22:02 10° SSE visible
27 Aug - 16:09:15 10° SE 16:11:28 12° ESE 16:13:38 10° E daylight
27 Aug - 17:47:36 10° SSW 17:53:23 82° ESE 17:58:41 10° NNE daylight
27 Aug - 19:32:30 10° W 19:36:31 20° NW 19:40:20 10° N visible
28 Aug - 00:49:40 10° N 00:52:00 14° NE 00:54:14 10° ENE visible
28 Aug - 02:30:50 10° NNW 02:35:24 81° ENE 02:39:43 10° SSE visible
28 Aug - 17:05:23 10° S 17:10:55 50° ESE 17:16:03 10° NE daylight
28 Aug - 18:48:50 10° WSW 18:53:42 30° NW 18:58:15 10° NNE daylight
